#timestamp,LO_Frequency,Hit,StdDev 
1607788815.5,286046999.2,N
1607788835.3,286046999.4,N
1607788855.2,286046997.0,N
1607788875.9,286046998.3,N
1607788895.7,286046999.3,N
1607788915.6,286046998.9,N
1607788935.4,286046999.2,N
1607788955.2,286046998.7,N
1607788975.1,286046998.6,N
1607788976.0,286046998.6,N
1607788995.8,286046998.3,N
1607789015.7,286047001.1,N
1607789035.5,286047000.7,N
1607789055.3,286047000.0,N
1607789075.2,286047001.6,N
1607789095.0,286047004.3,Y
1607789095.9,286047004.3,P
1607789115.8,286047005.7,N
1607789135.6,286047003.3,N
1607789155.4,286047005.8,N
1607789175.3,286047004.2,N
1607789195.1,286047003.4,N
1607789215.8,286047003.8,N
1607789235.7,286047004.1,N
1607789255.5,286047002.5,N
1607789275.4,286047001.6,N
1607789295.2,286047003.9,N
1607789315.0,286047004.3,N
1607789315.9,286047004.3,N
1607789335.8,286047004.3,N
1607789355.6,286047003.5,N
1607789375.4,286047002.2,N
1607789395.3,286047002.8,N
1607789415.1,286047001.9,N
1607789435.9,286047002.7,N
1607789455.7,286047002.7,N
1607789475.5,286047000.2,N
1607789495.4,286047001.9,N
1607789545.2,286047001.8,E
1607789555.2,286047002.5,N
1607789575.9,286046999.7,P
1607789595.7,286047000.4,N
1607789615.6,286047000.9,N
1607789635.4,286047000.6,N
1607789655.2,286047000.7,N
1607789675.1,286047000.8,N
1607789676.0,286047000.8,N
1607789695.8,286047002.4,Y
1607789715.7,286046999.7,P
1607789735.5,286046999.9,N
1607789755.3,286047000.9,N
1607789775.2,286047000.0,N
1607789795.0,286047001.8,Y
1607789795.9,286047001.8,P
1607789815.7,286047004.4,P
1607789835.6,286047002.0,N
1607789855.4,286047002.3,N
1607789875.3,286047001.9,N
1607789895.1,286047001.9,N
1607789896.0,286047001.9,N
1607789915.8,286047002.2,N
1607789935.7,286047001.3,N
1607789955.5,286047002.5,N
1607789975.3,286046999.8,N
1607789995.2,286047002.5,N
1607790015.0,286046999.7,N
1607790015.9,286046999.7,N
1607790035.8,286047001.4,N
1607790055.6,286047002.5,N
1607790075.4,286047001.8,N
1607790095.3,286047002.5,N
1607790115.1,286047003.5,Y
1607790135.8,286047002.1,P
1607790155.7,286047000.0,N
1607790175.5,286046999.9,N
1607790195.4,286047002.0,N
1607790215.2,286046999.9,N
1607790235.0,286047000.0,N
1607790235.9,286047000.0,N
1607790255.8,286047000.0,N
1607790275.6,286046999.9,N
1607790295.4,286046998.4,N
1607790315.3,286046998.9,N
1607790335.1,286046999.0,N
1607790355.9,286046999.2,N
1607790375.7,286046998.3,N
1607790395.5,286047000.7,N
1607790415.4,286047000.3,N
1607790435.2,286046998.2,N
1607790455.0,286047001.1,N
1607790455.9,286047001.1,N
1607790475.8,286047000.8,N
1607790495.6,286047000.3,N
1607790515.5,286047002.3,N
1607790535.3,286047002.8,N
1607790555.1,286047002.0,N
1607790575.9,286047003.9,Y
1607790595.7,286047002.0,P
1607790615.5,286047001.3,N
1607790635.4,286047004.4,P
1607790655.2,286047002.7,N
1607790675.0,286047000.0,N
1607790676.0,286047000.0,N
1607790695.8,286047002.7,N
1607790715.6,286047000.9,N
1607790735.5,286047000.8,N
1607790755.3,286046999.8,N
1607790775.1,286047000.3,N
1607790795.9,286046998.6,N
1607790815.7,286046999.0,N
1607790835.5,286047000.1,N
1607790855.4,286047001.0,N
1607790875.2,286047000.4,N
1607790895.1,286047000.2,N
1607790896.0,286047000.2,N
1607790915.8,286047001.1,N
1607790935.6,286046999.0,N
1607790955.5,286046998.3,N
1607790975.3,286047000.5,N
1607790995.1,286047001.2,N
1607791015.9,286047001.1,N
1607791035.7,286047000.2,N
1607791055.6,286047001.0,N
1607791075.4,286047000.8,N
1607791095.2,286047000.2,N
1607791115.1,286047000.9,N
1607791116.0,286047000.9,N
1607791135.8,286047000.4,N
1607791155.6,286047001.1,N
1607791175.5,286047000.1,N
1607791195.3,286047000.1,N
1607791215.2,286047002.7,Y
1607791235.9,286047001.2,P
1607791255.7,286047000.9,N
1607791275.6,286047000.6,N
1607791295.4,286046998.4,Y
1607791315.3,286046999.4,P
1607791335.1,286046997.1,P
1607791336.0,286046997.1,N
1607791355.8,286046998.8,N
1607791375.7,286046998.9,N
1607791395.5,286046998.9,N
1607791415.3,286046999.2,N
1607791435.2,286047001.0,N
1607791455.0,286046998.5,N
1607791455.9,286046998.5,N
1607791475.8,286046998.9,N
1607791495.6,286046998.1,N
1607791515.4,286047000.7,N
1607791535.3,286046998.7,N
1607791555.1,286046999.3,N
1607791575.8,286046999.1,N
1607791595.7,286046996.7,Y
1607791615.5,286047000.9,P
1607791635.4,286047000.5,N
1607791655.2,286047000.2,N
1607791675.0,286046999.8,N
1607791675.9,286046999.8,N
1607791695.8,286047001.1,N
1607791715.6,286047000.8,N
1607791735.4,286047001.2,N
1607791755.3,286046996.5,Y
1607791775.1,286046996.6,P
1607791795.9,286046998.2,N
1607791815.7,286046998.2,N
1607791835.5,286047000.9,N
1607791855.4,286047000.0,N
1607791875.2,286047002.1,N
1607791895.0,286047000.2,N
1607791895.9,286047000.2,N
1607791915.8,286047001.3,N
1607791935.6,286047002.2,N
1607791955.5,286047000.5,N
1607791975.3,286047000.0,N
1607791995.1,286047001.0,N
1607792015.9,286046998.1,N
1607792035.7,286046999.1,N
1607792055.5,286046998.6,N
1607792075.4,286046999.2,N
1607792095.2,286046998.6,N
1607792115.1,286046998.4,N
1607792116.0,286046998.4,N
1607792135.8,286046998.9,N
1607792155.6,286046998.9,N
1607792175.5,286046999.2,N
1607792195.3,286046998.9,N
1607792215.1,286046998.3,N
1607792235.9,286046997.6,N
1607792255.7,286046994.9,Y
1607792275.6,286046996.8,P
1607792295.4,286046999.6,N
1607792315.2,286046994.9,P
1607792335.1,286046997.8,N
1607792336.0,286046997.8,N
1607792355.8,286046999.4,N
1607792375.7,286046999.1,N
1607792395.5,286046998.6,N
